Terminal Aerodrome Forecast
Issued by NWS

Home | Current Version | Previous Version | Graphics & Text | Print | Product List | Glossary On
Versions: 1 2 3 4 5 6 7 8 9 10 11 12 13 14 15 16 17 18 19 20 21 22 23 24 25
000
FTUS43 KBIS 061459 AAB
TAFMOT
TAF AMD
KMOT 061459Z 0615/0712 35004KT 4SM FU BKN030
      TEMPO 0615/0616 BKN035
     FM061600 34012KT 5SM FU BKN035 BKN100
     FM062100 35012KT 6SM FU SCT040
     FM070300 VRB03KT 3SM FU SKC
     FM070900 13007KT 3SM FU SKC=

USA.gov is the U.S. government's official web portal to all federal, state and local government web resources and services.